Location: Banksville Park
(38.5557°N, 75.1182°W)
Time: 15:17:57
(UTC+00:00)

Cosmos 1536 Rocket - Pass Details

Date: 19 September 2020
Orbit: 606 x 632 km, 82.5° (Epoch: 27 October)

Event Time Altitude Azimuth Distance (km) Brightness Sun altitude
Rises 01:03:03 0° 351° (N) 2,914 7.4 -23.7°
Reaches altitude 10° 01:05:17 10° 350° (N) 2,007 6.6 -24.1°
Maximum altitude 01:09:43 77° 266° (W) 649 3.6 -24.9°
Enters shadow 01:09:58 74° 227° (SW) 658 3.6 -24.9°
